TimeEDT,TemperatureF,Dew PointF,Humidity,Sea Level PressureIn,VisibilityMPH,Wind Direction,Wind SpeedMPH,Gust SpeedMPH,PrecipitationIn,Events,Conditions,WindDirDegrees,DateUTC
12:21 AM,60.8,59.0,94,29.17,10.0,SW,11.5,-,0.00,,Overcast,230,2013-11-01 04:21:00
12:53 AM,61.0,57.9,90,29.18,6.0,WSW,19.6,29.9,0.04,Rain,Rain,240,2013-11-01 04:53:00
1:05 AM,60.8,55.4,82,29.15,10.0,WNW,18.4,34.5,0.01,Rain,Light Rain,290,2013-11-01 05:05:00
1:53 AM,57.0,54.0,89,29.16,10.0,West,15.0,24.2,0.01,,Overcast,260,2013-11-01 05:53:00
2:53 AM,55.0,51.1,86,29.23,10.0,WSW,26.5,35.7,N/A,,Overcast,250,2013-11-01 06:53:00
3:06 AM,53.6,51.8,94,29.23,7.0,West,20.7,33.4,0.00,Rain,Light Rain,260,2013-11-01 07:06:00
3:53 AM,53.1,48.0,83,29.26,10.0,West,21.9,33.4,0.00,,Overcast,260,2013-11-01 07:53:00
4:53 AM,52.0,45.0,77,29.30,10.0,West,26.5,41.4,N/A,,Mostly Cloudy,260,2013-11-01 08:53:00
5:26 AM,51.8,44.6,76,29.32,10.0,West,20.7,27.6,N/A,,Overcast,260,2013-11-01 09:26:00
5:44 AM,51.8,44.6,76,29.34,10.0,West,24.2,32.2,N/A,,Overcast,260,2013-11-01 09:44:00
5:53 AM,51.1,44.1,77,29.34,10.0,West,21.9,29.9,N/A,,Overcast,270,2013-11-01 09:53:00
6:53 AM,48.0,42.1,80,29.40,10.0,West,19.6,27.6,N/A,,Overcast,260,2013-11-01 10:53:00
7:53 AM,46.9,41.0,80,29.43,10.0,WSW,20.7,27.6,N/A,,Overcast,250,2013-11-01 11:53:00
8:07 AM,48.2,39.2,71,29.44,10.0,West,25.3,39.1,N/A,,Overcast,270,2013-11-01 12:07:00
8:20 AM,48.2,39.2,71,29.45,10.0,West,16.1,25.3,N/A,,Overcast,260,2013-11-01 12:20:00
8:53 AM,46.9,39.0,74,29.48,10.0,WSW,16.1,27.6,N/A,,Overcast,250,2013-11-01 12:53:00
9:53 AM,46.9,37.9,71,29.53,10.0,West,27.6,36.8,N/A,,Overcast,260,2013-11-01 13:53:00
10:53 AM,48.0,39.9,74,29.54,10.0,WSW,19.6,26.5,N/A,,Overcast,250,2013-11-01 14:53:00
11:53 AM,48.0,41.0,77,29.55,10.0,WSW,16.1,23.0,N/A,,Overcast,250,2013-11-01 15:53:00
12:53 PM,48.0,41.0,77,29.57,10.0,WSW,16.1,-,N/A,,Overcast,240,2013-11-01 16:53:00
1:53 PM,46.9,42.1,83,29.58,9.0,WSW,12.7,-,N/A,,Overcast,250,2013-11-01 17:53:00
2:53 PM,46.9,41.0,80,29.59,10.0,WSW,13.8,21.9,N/A,,Overcast,250,2013-11-01 18:53:00
3:53 PM,46.9,41.0,80,29.61,10.0,WSW,13.8,-,N/A,,Overcast,240,2013-11-01 19:53:00
4:10 PM,46.4,41.0,81,29.61,9.0,WSW,15.0,20.7,N/A,,Overcast,250,2013-11-01 20:10:00
4:32 PM,46.4,42.8,87,29.60,10.0,WSW,8.1,-,N/A,,Overcast,250,2013-11-01 20:32:00
4:53 PM,46.9,42.1,83,29.61,10.0,WSW,9.2,-,N/A,,Overcast,250,2013-11-01 20:53:00
5:53 PM,46.9,39.9,77,29.62,10.0,WSW,6.9,-,N/A,,Overcast,250,2013-11-01 21:53:00
6:53 PM,46.0,39.9,79,29.64,10.0,WSW,10.4,-,N/A,,Overcast,250,2013-11-01 22:53:00
7:53 PM,45.0,41.0,86,29.66,10.0,West,6.9,-,N/A,,Overcast,260,2013-11-01 23:53:00
8:53 PM,45.0,41.0,86,29.66,10.0,SW,4.6,-,N/A,,Overcast,230,2013-11-02 00:53:00
9:53 PM,45.0,41.0,86,29.67,10.0,SW,5.8,-,N/A,,Overcast,220,2013-11-02 01:53:00
10:10 PM,44.6,41.0,87,29.66,10.0,SW,4.6,-,N/A,,Overcast,230,2013-11-02 02:10:00
10:53 PM,45.0,41.0,86,29.67,10.0,SW,4.6,-,N/A,,Overcast,230,2013-11-02 02:53:00
11:53 PM,44.1,41.0,89,29.67,10.0,SW,3.5,-,N/A,,Overcast,230,2013-11-02 03:53:00